TIMESTAMP,CO2_1_1_1,H2O_1_1_1,TAU_1_1_1,TAU_SSITC_TEST_1_1_1,H_1_1_1,H_SSITC_TEST_1_1_1,LE_1_1_1,LE_SSITC_TEST_1_1_1,FC_1_1_1,FC_SSITC_TEST_1_1_1,WD_0_0_1,WS_0_0_1,WS_MAX_0_0_1,U_SIGMA_0_0_1,V_SIGMA_0_0_1,W_SIGMA_0_0_1,USTAR_0_0_1,MO_LENGTH_0_0_1,ZL_0_0_1,FETCH_MAX_0_0_1,FETCH_70_0_0_1,FETCH_80_0_0_1,FETCH_90_0_0_1,PA_0_0_1,RH_0_0_1,TA_0_0_1,VPD_0_0_1,T_SONIC_0_0_1,T_SONIC_SIGMA_0_0_1
[yyyymmddHHMMSS],[mmolCO2 mol-1],[mmolH2O mol-1],[kg m-1 s-2],[#],[W m-2],[#],[W m-2],[#],[umolCO2 m-2 s-1],[#],[Decimal degrees],[m s-1],[m s-1],[m s-1],[m s-1],[m s-1],[m s-1],[m],[#],[m],[m],[m],[m],[kPa],[%],[deg C],[hPa],[deg C],[deg C]
20240208003000,425.71822355040359,5.0808443601667523,0.58498266401144039,0,-36.771565416888876,0,9.6153409003046093,0,1.7350696794928753,0,117.74057896543937,3.7993320567596793,8.8886287957223367,1.3747218194968180,1.1463613666569958,0.81968097289526998,0.70631833203248440,799.60459647920857,2.3761744346718548E-002,111.15766086971078,203.23165598744592,243.21638612776982,304.47805432567179,94.105868831437164,51.611333333333334,5.9096666666666806,4.4840211880289038,6.0755601534785910,0.15929668048026407
20240208010000,425.91358899343686,5.0079634760261102,0.81191313163925560,0,-44.660399776187802,0,9.5221170133212993,0,2.4739383767052154,0,116.65677818803951,4.0791407361418219,10.984744256562474,1.5139662969011232,1.2848256441128647,0.97693655101643961,0.83214054238653301,1076.1954169491321,1.7654786204035714E-002,110.13342825818896,201.35903211134701,240.97533362289090,301.67252252252786,94.058445186610967,51.256666666666668,5.7933333333333508,4.4806424921086236,5.9473986047913741,0.13432591795542986
20240208013000,426.94680565122212,5.0510289687047321,1.0630093950161710,0,-41.966676431113385,0,8.8951692543904226,0,1.9347282520469873,0,126.07177371480583,4.2284648739950361,11.767751105703789,1.9555924402810128,1.5750427406885126,1.0099855757050398,0.95190337313711038,1714.5723925406032,1.1081480188682121E-002,119.41999683461005,218.33784126818230,261.29463173525613,327.10987258358062,94.075388995225694,52.085666666666668,5.6879999999999882,4.3723969628233794,5.8506300905015678,0.10529052863548902
20240208020000,428.38713121104223,5.1326225726534487,0.70903938556606882,0,-29.572391203003999,0,6.8474281158093522,0,1.3666414276663854,0,124.84407829573146,4.7800194620689300,10.604717195410730,1.6835090346770600,1.4046535810151533,0.99860431410384765,0.77706584998462613,1323.4871360759703,1.4356014110067912E-002,102.44868966554861,187.30887904233347,224.16088885844658,280.62283295204401,94.059445688192795,54.087000000000003,5.3733333333333348,4.0992178704770561,5.5339188017147762,0.14544777604452266
20240208023000,429.42823508818356,5.1633305465546293,0.88818366116102676,0,-46.241761723311214,0,8.9709291039957382,0,1.7754497326651968,0,131.15666819874642,3.7543812177966585,9.8857778300085428,1.6039870905681339,1.3127919328797930,0.96695820381101727,0.86904420929235537,1184.0716209719787,1.6046326643994146E-002,114.96409740466028,210.19103597400064,251.54498652122587,314.90447371060316,94.076004625434024,55.879333333333335,4.9933333333333394,3.8363314541677642,5.1753719872368720,0.16239978678226183
20240208030000,430.77605383315483,5.2345628649158362,1.0688822196666787,0,-29.865150359841447,0,3.5100259493126291,1,1.3125776533540698,1,121.03002208142493,4.1285631969943228,11.147482271663808,1.7247950042869316,1.3983900498489163,1.0243349701247189,0.95271826550181826,2414.9511455688880,7.8676539833372836E-003,118.16065601843610,216.03536461006331,258.53915523623158,323.66034298353816,94.042997796006944,58.551000000000002,4.5160000000000196,3.4858051253474382,4.7229828202989097,0.15808273189893868
20240208033000,432.19850791713594,5.2803392261591711,0.79123179111759079,0,-28.383412633604546,0,3.8744331546753603,0,1.7673658199954119,0,123.75351223713392,4.3884069152784626,10.462291054352985,1.6394211382289778,1.4794492375639818,1.0133723077113173,0.81912368084332299,1614.7322792252990,1.1766656457202701E-002,105.61345720828533,193.09508346129459,231.08549773071394,289.29162155614176,94.023882706368411,60.931666666666665,4.0690000000000168,3.1841851417735301,4.2964424023934953,0.13746793522590703
20240208040000,432.68977518429932,5.4042474629116217,1.1332969389380179,0,-44.022213985353972,0,8.5115845703553177,1,3.3267192179954450,0,123.14035758434540,4.5694773416417425,12.154428285122950,1.9079903952691204,1.4455731354649655,1.1018537560743262,0.97992445774399328,1781.9924981388333,1.0662222214652515E-002,114.00130227778580,208.43073941431780,249.43836112530010,312.26722869616748,93.986560677517346,63.884999999999998,3.7203333333333148,2.8721438272061857,3.9805303217569872,0.12837133245017607
20240208043000,432.53107083675968,5.5536739380235653,0.78725953943341997,0,-26.353173290558583,0,-0.15687387436996764,2,2.1467810679116992,0,128.75220299279852,4.3867085663906877,10.536543031244127,1.6025827418797662,1.4108987308227801,0.98105526839685098,0.81639609800387414,1721.0818394736855,1.1039567999747348E-002,108.09879594341089,197.63907532723846,236.52349544253258,296.09934939505541,93.963296100477422,67.096000000000004,3.4083333333333599,2.5598066729767730,3.6926660241021523,0.12578346036549234
20240208050000,432.98393732345374,5.6420396673038500,0.77060895170629795,0,-28.202124485615016,0,0.93173142709103840,1,3.0390384897471621,0,128.72921997842661,4.3331803770181239,11.881038493753927,1.6559178160782595,1.3642012310489120,0.99499427926241402,0.80733310134165448,1555.3042440974837,1.2216259340966033E-002,105.93528522158488,193.68348771138656,231.78966733753163,290.17315834407219,93.964124176295016,69.474999999999994,3.1390000000000100,2.3299242511602505,3.4418984756262034,0.11288155528251430
20240208053000,434.21545231883192,5.6472692813829442,0.75134221488724473,0,-29.815861417460670,0,2.0025130259989377,0,2.0957550680582249,0,128.90613018859489,4.2511268633348687,10.468473085688728,1.6337721571473196,1.4023197242245560,0.93877179928952859,0.79711841870299727,1415.9236694222921,1.3418802446993594E-002,109.85634542974439,200.85243632991472,240.36906785888445,300.91354972810444,93.957997182074664,69.825999999999993,3.0799999999999841,2.2935301248319777,3.3984693645901416,0.12187012827323229
20240208060000,434.49143553537186,5.6346516953869985,0.80372752050444940,0,-40.830656768778937,0,1.0534453938082080,1,1.9062221527553704,0,128.95668513570172,4.1658492390132604,10.949702495086683,1.7471939788949766,1.4228542765974495,0.96514504173749760,0.82443326197609956,1143.8089255714408,1.6611166056872396E-002,110.38377359457834,201.81674322981667,241.52309693064831,302.35825718388139,93.944614125434029,69.866000000000000,3.0383333333333553,2.2837383556665101,3.3469484380087238,0.16830306631589576
20240208063000,435.07240927922186,5.6310278517770005,0.89440069674182077,0,-45.113768545170053,0,1.2146896256495630,0,2.0285746776629803,0,129.09828815803411,4.0148986747706941,9.8203195063941084,1.7077646925206311,1.4780855870863778,0.97559800737672497,0.86936646967892883,1213.6099457094620,1.5655771499872493E-002,114.18274645003535,208.76247722984067,249.83536656346064,312.76423239436537,93.916860454921107,71.251333333333335,2.7483333333333348,2.1343833895596731,3.0630739373216329,0.14409321629283525
20240208070000,435.72770231456184,5.6078340637638222,1.0906073267335734,0,-47.685054011887637,0,1.8877662053287605,0,2.5120475758135279,0,127.51443957703616,4.2235907573843141,10.515633545584985,1.7677492564801671,1.4623502750567072,1.0593920852514569,0.95981982667324006,1544.8809573052258,1.2298682244839222E-002,115.70744239879240,211.55010770100037,253.17144826668212,316.94061081294251,93.896042669270827,71.763666666666666,2.5863333333333571,2.0723475997234164,2.9181543189154695,0.14165111954797099
20240208073000,436.92249057014487,5.5746527416703433,1.0088772148913798,0,-37.653302011183868,0,1.0905303238209936,2,1.1905221811991700,1,130.43415119051150,4.0821731592821155,10.755570685100349,1.7177508425684895,1.4487169899649373,1.0832039696928346,0.92306555828644710,1739.5705102795193,1.0922236200099198E-002,110.17238290914729,201.43025363724752,241.06056759916231,301.77922534658808,93.848478634114585,72.272000000000006,2.3966666666666470,2.0077517239293003,2.7078625861274759,0.21986405246815333
20240208080000,438.34749672613947,5.5783067311991585,1.0800086957811907,0,-53.624700283535930,0,1.0345320605550976,1,2.9796519522412330,0,133.69356463189374,3.9797395797547601,11.636600616199495,1.7190983793937451,1.3618450642131432,1.0393632252401432,0.95473321159833158,1351.2344442857207,1.4061216453110502E-002,116.98943587924538,213.89400065411812,255.97648949295083,320.45218956993023,93.819269800347215,73.702333333333328,2.1266666666666652,1.8678710778149537,2.4613456107245497,0.13344327756168667
20240208083000,439.53796728964159,5.5198314441544998,1.1907115057445925,0,-54.335289383476820,0,6.0317216232326336,0,2.1857256173817730,0,128.40773353661552,4.4372934441263983,13.081369257551625,1.9194089354766852,1.5251671046287305,1.0946711199951336,1.0028016130259634,1544.5532926256747,1.2301291312325527E-002,116.73470508961518,213.42827152845567,255.41913067841128,319.75444247272964,93.757096710457773,72.853666666666669,2.1320000000000050,1.9288844372269875,2.4579788339439688,0.15244228091250245
20240208090000,440.26292703785947,5.4566841082171287,1.6489874459579821,0,-72.029214329221489,0,8.9519658966761355,0,4.4511187754965462,0,130.88245282797800,4.9994546987524915,12.919024133766088,2.2146396784513787,1.7778921303986508,1.2908311638194505,1.1807188817096621,1900.8772018709219,9.9953852785963308E-003,116.59409427772206,213.17119011879672,255.11146989055771,319.36928767469419,93.692786974246332,71.436999999999998,2.2363333333333344,2.0447116035498532,2.5597442881337429,0.15850650041089367
20240208093000,440.62846350218138,5.4593095681640760,1.0399921121584037,0,-28.392670656928523,0,5.0073888959013662,0,2.5464851319657509,0,130.71192845658265,4.2035432392714709,10.826115933656988,1.8067397433225381,1.4649238456251081,1.0889407432392895,0.93805865547101719,2417.3828534391723,7.8597397069185802E-003,111.13107051536279,203.18304033913927,243.15820561335659,304.40521922557747,93.643790062065960,71.025999999999996,2.3166666666666629,2.0860479273875563,2.6315522113376346,0.10997572126597485
20240208100000,440.57939114208591,5.4361640866066212,1.1153980411782320,0,-34.358582820521143,0,4.7944708181062845,0,3.1336139216691148,0,132.13351870920306,4.1146645793477568,11.365495094084968,1.8757103171402270,1.4050286395719820,1.0748577793753142,0.97180837625057293,2220.3102336213160,8.5573627109807471E-003,115.51505972644757,211.19837081864770,252.75050905335920,316.41364486832640,93.597468135850690,70.401666666666671,2.3740000000000236,2.1397225007162541,2.6768796573214786,0.10695955331262241
20240208103000,440.73831176372147,5.4615879081967904,1.0873871203686158,0,-25.766784522661482,0,3.5841225418701406,0,2.7795507898633276,0,128.60090882126019,4.3365073833198702,12.493991479356088,1.9197353857153685,1.3059106308479722,0.99515305544316712,0.95937352947765087,2847.7356839836571,6.6719675238332407E-003,121.59988952467830,222.32338034674183,266.06430409140779,333.08093638357099,93.564007344323002,71.670000000000002,2.1840000000000259,2.0204745853398207,2.4927922160611047,9.6195479577776646E-002
20240208110000,440.94383891491913,5.5578088362317919,0.88872088307436714,0,-23.273731738460555,0,-2.3135744600191170,2,2.0952966803252591,0,133.29751529146705,3.8731952770676905,11.357249976783367,1.8629635735471681,1.4020176039162071,0.97308063712809911,0.86721502611065793,2328.1499997428746,8.1609861916536290E-003,114.19241836302629,208.78016057148653,249.85652900702226,312.79072526247762,93.532069989149321,73.794666666666672,2.0146666666666988,1.8464831255377352,2.3278258726331842,0.10298283769962339
20240208113000,440.69657842396674,5.6703437821144274,1.0627192039287283,0,-45.440848217372327,0,-5.9447126826955623,1,3.6007621868840061,0,127.61672023367298,4.3795259977222774,11.603910946434647,1.9429111336111742,1.5432902643595450,1.0650732624638111,0.94839722040518581,1559.0739329543942,1.2186721616206885E-002,114.11520950644955,208.63899815716243,249.68759365046000,312.57923824266032,93.483343216579840,75.834666666666664,1.9063333333333503,1.6896047154661540,2.2437519785563609,0.11060296323401093
20240208120000,440.89584359395457,5.7998529769183484,1.0989429116860077,0,-15.341730565826900,0,-3.5430971262630924,1,2.2419969955279826,0,116.94486088344436,4.9666822247475615,12.284076664998608,1.9858012306408948,1.6399775382290749,1.1438325303564636,0.96481699471820159,4856.4855470035936,3.9122941510086077E-003,109.27502151824645,199.78959081594422,239.09711323319371,299.32121347236631,93.336183341145826,78.692666666666668,1.6829999999999927,1.4661497792454918,2.0030196965535083,0.14236930596739714
20240208123000,440.97263168539740,5.9196626784323367,1.0010453434460953,0,-18.557187044257606,0,-0.75995648600017573,0,2.4743009102297244,0,127.80595255726359,4.0091129884985541,11.054718813774468,1.8146917138636431,1.5125624797159845,1.0480808140447067,0.92075997502900797,3488.8988778453199,5.4458442807416799E-003,112.89019651041733,206.39928370255925,247.00722747935345,309.22373786025543,93.303689164496518,81.193333333333328,1.5269999999999868,1.2796868602914844,1.8781551284790226,7.9387262401609496E-002
20240208130000,440.78079348066495,5.9809119108685307,0.56494502125166279,0,-15.421184266749457,0,1.1206134352677082,2,1.4872519602016183,0,133.72014503103458,3.9117338505048052,10.471620410375698,1.6513693483897403,1.4417324695164120,0.93611129683615990,0.69155441114220118,1779.1471713936076,1.0679273927135148E-002,98.277476281759562,179.68257063649116,215.03414548299830,269.19723326475008,93.329342475260404,82.366666666666660,1.4743333333333339,1.1953222896964655,1.8266707509358753,8.4311709143795960E-002
20240208133000,440.29013872367580,6.0322964346267334,0.86996653707257166,0,-29.681303053912149,0,-1.4137460331971408,0,2.7340657031334525,0,128.80065852245869,3.9719344759902624,10.403126428085280,1.7370038329275714,1.4156807461181413,0.99742437410321505,0.85827969932168768,1766.7615002400628,1.0754139705567690E-002,111.03348996289240,203.00463196750241,242.94469635864118,304.13793097460359,93.305331409618631,83.096666666666664,1.4669999999999845,1.1452343538300920,1.8330541587931748,9.0043401904258691E-002
20240208140000,439.66865161281726,6.0968143578859291,1.0443934665346100,0,-22.212063154952403,0,-1.3643904510742288,1,2.5538545285204988,0,129.40987242288520,3.9488344733530307,11.038360776875692,1.8846271451600256,1.5309754124378203,1.1313415965129880,0.94084179520140510,3108.7205369441331,6.1118391872808766E-003,108.04213984659893,197.53548991273090,236.39953015745107,295.94415956838924,93.257534577690976,83.256666666666661,1.5813333333333048,1.1437373005371820,1.9488278181288479,8.4289682343676176E-002
20240208143000,439.35441788008740,6.1461248438694929,1.0470634235289178,0,4.6392469711119331,2,2.3331522675983547,1,1.5552947732328901,0,130.49065493995386,3.9286004728993151,11.374568352694087,1.8863330139866876,1.4161175811737634,1.0188456824960335,0.94260518260732806,-14961.857642406658,-1.2698957879500180E-003,117.66086338796165,215.12158428087218,257.44559356494239,322.29133353783260,93.202895959635413,82.916666666666671,1.7426666666666506,1.1805327618790533,2.1042193001641181,0.11269792600164592
20240208150000,438.67939326982508,6.1727546977624890,1.4254327714894259,0,31.463042058050618,0,5.4956575385885653,0,2.9234956322065573,0,133.17168317295375,4.1995236436065611,12.137757763468008,2.0503920424312012,1.6063244816742692,1.1542142541346794,1.1012361130563066,-3516.2992578215931,-5.4034081307888513E-003,120.59522412497158,220.48653157448302,263.86606524873650,330.32900220505695,93.141751118055581,80.122666666666660,2.2736666666666565,1.4267327227795557,2.6034303775363696,0.13421447634790165
20240208153000,437.92216676848977,6.1606504679423564,1.3337608239045053,0,61.664652568691828,0,6.9746244299736704,0,2.4098308605506351,0,136.28189443502666,4.6503579332987828,11.456591016122983,2.0063671563705574,1.6640902240276347,1.2076657663428840,1.0667975137846941,-1630.0707831389841,-1.1655935556008313E-002,113.38695468070853,207.30751607074399,248.09414965828702,310.58443544940246,93.066313632812495,76.642333333333340,2.8589999999999804,1.7478183661272590,3.1433298356798787,0.20088631493560596
20240208160000,437.26637429644171,6.1447542665267676,1.6296621223874408,0,92.578855922700413,0,14.466680897231589,1,3.4568919262857869,0,139.81493113797080,4.6646254751716230,13.184238755383525,2.3143457986676470,1.7871143496189508,1.3301966903563740,1.1803910836358684,-1470.7766561735280,-1.2918344821593569E-002,113.80017913604759,208.06302216628427,248.99829749569955,311.71632125175751,93.060813264407855,73.584666666666664,3.3966666666666470,2.0533198759837910,3.5764960100682970,0.17409978778599799
20240208163000,436.53603633138107,6.1697712471991730,1.7542469444330779,0,131.21543859233540,0,11.017058557702578,0,2.3501122361032776,0,149.03948393656779,4.7677964089133367,13.768465759388265,2.3678564170490097,1.9512042954308992,1.3630439909028682,1.2262411200477070,-1163.1268956621680,-1.6335276976965872E-002,115.05558426231111,210.35830312802307,251.74516258396349,315.15507038739491,93.030150034505212,70.743666666666670,4.0083333333333258,2.3743328036243159,4.1719292348226418,0.29375217879528870
20240208170000,435.24387202176422,6.2351387793802786,1.6951399672154790,0,174.20365515348084,0,16.079187944681451,0,1.3980890644622446,1,152.83522647214312,4.5428222807737537,13.327391951313153,2.1728505574311892,1.8665423877886986,1.3669917493725849,1.2079130393726030,-837.38261617659452,-2.2689747354383956E-002,113.41505839351734,207.35889862097795,248.15564144763067,310.66141587277951,93.023377715277775,66.066666666666663,5.1353333333333353,2.9798804180120535,5.2471824824015130,0.40872407469976063
20240208173000,433.99352632986211,6.3224041909471538,1.3820109612251337,0,95.742372334470488,1,6.3977427889299863,1,4.0147774933493192,1,148.67221891519944,4.0353558825397382,12.545579879912824,2.2955979517185088,1.6304794491438170,1.2697645941982940,1.0929778677780397,-1128.3927587008841,-1.6838108764429378E-002,111.06198301239533,203.05672634938577,243.00704002866479,304.21597785150414,92.976175064670130,62.323000000000000,6.1693333333333271,3.5546625323175420,6.2010938076443836,0.41399369379073575
20240208180000,431.74841559537367,6.4204501425924310,1.4930614148593087,0,168.76806286546437,0,14.853261594392304,0,2.5241504380530628,0,147.42000194616634,4.4074641234695955,12.331828224672122,2.2096280565846795,1.7466278869035947,1.2448732826098112,1.1388762218516781,-723.71388419826883,-2.6253468967295308E-002,116.61005583087061,213.20037292862852,255.14639426053276,319.41300884162649,92.880920420845356,58.628999999999998,7.2666666666666515,4.2091267065980960,7.3029624512518581,0.36084377193547795
20240208183000,430.48674032205668,6.5457378401562680,0.78853225659315107,0,120.02560759343987,0,9.7647069168370493,0,1.6028409166117574,0,146.80720591894033,4.4930840053758700,11.403813743503981,1.8360781805080870,1.8179875591182881,1.1403796435831348,0.82930306670089271,-392.72738582566609,-4.8379615697170170E-002,97.047857463885322,177.43443527060921,212.34370163182183,265.82911682275864,92.815598605902778,56.139666666666670,8.1756666666666433,4.7478627408106480,8.1985155139499284,0.33521991009749064
20240208190000,429.22130530046519,6.7263505707337981,1.0480494371915476,0,146.58645115503290,0,-3.2250825180796752,2,1.7710254653107953,0,143.50103515602592,4.0098952167815245,11.223676794935654,1.9966693708872010,1.6478054098325969,1.1356607803897876,0.95771589320630557,-494.97917668494040,-3.8385453156332891E-002,109.25601428279812,199.75483952749786,239.05552481652632,299.26914970975980,92.733952036892362,54.983333333333334,8.8713333333333253,5.1083072972914456,8.8804101850721509,0.28492652876694707
20240208193000,428.41510882916890,6.8588876415323172,1.0868950678026990,0,128.32477771271115,0,8.5507441238245594,0,0.27455938278516057,2,135.51826942210801,3.3429387598324638,10.239038269362501,1.9882597679688985,1.5064611557661978,1.1010579775697600,0.97657487769564855,-599.12497628690619,-3.1712915922405757E-002,113.75518153009310,207.98075219134913,248.89984134774696,311.59306583775242,92.652474660590258,54.256999999999998,9.3446666666666829,5.3591517931349859,9.3745927429199014,0.34562507337995901
20240208200000,428.84345655874216,6.9176305012434574,0.92227829898910507,0,124.92826712726568,0,2.3690151366878478,1,0.21845228948750173,2,125.92589103494382,4.1185488831995816,10.633168540566068,1.9543484092932435,1.5233927140560639,1.0177695443045924,0.90031123287390824,-481.94542032253673,-3.9423551296087544E-002,113.51401214376314,207.53981763610724,248.37215530137919,310.93246552520418,92.581751700086812,53.828333333333333,9.5779999999999745,5.4949513571380191,9.6242939130995069,0.26892052213459966
20240208203000,428.66147188631300,7.0592287884683884,1.5446290028436251,0,105.04079113664767,0,17.111777892361268,1,0.33221733273342979,2,128.79110133829886,4.6423014832191640,13.229325731323181,2.4236080207213382,1.8255097921167074,1.3170870283559049,1.1643374963735300,-1239.6049556231101,-1.5327463732548006E-002,113.45572850188364,207.43325655013734,248.24462889755435,310.77281760044906,92.557213383654215,56.695333333333330,9.1043333333333294,4.9919634244393993,9.1776178888091522,0.24953923841773604
20240208210000,428.26372408952187,7.2572315080464396,1.1856172230557063,0,85.537347823130119,0,-9.5209179856618888,1,2.1036108402243885,0,132.01045582289660,4.3325051332516216,14.118477447770330,2.0712756337016356,1.7860869753996291,1.2346533669294157,1.0200816748950903,-1023.2980126598885,-1.8567416104535123E-002,107.47979276885832,196.50734010321949,235.16909742859130,294.40380380031598,92.508188350157013,58.951000000000001,8.9283333333333417,4.6760488316266677,8.9980632360719142,0.20510281922185272
20240208213000,427.87118837003413,7.4224491931401939,1.2072418206715489,0,52.737268503221266,0,-12.970077249233160,1,1.8787026081822868,0,134.32349867392415,4.3094197758231587,13.210002334601887,2.0626734044489687,1.8211782639732346,1.2145967516594212,1.0294139701091813,-1705.6401833206835,-1.1139512416393242E-002,109.69359092344661,200.55486918451493,240.01295598555026,300.46773992046218,92.499249081380214,60.310333333333332,8.9226666666666574,4.5194714015566460,9.0357394315931856,0.12750393732544696
20240208220000,427.97028648496422,7.5012586000053050,1.6508844398958631,0,6.4400155295225732,0,-5.1803756390994575,0,3.0401165918729847,0,138.46751379919289,4.0953954683681655,12.619493937258895,2.1021060184699878,1.8426251187599314,1.2865785164718191,1.2030480835232376,-22295.213187707403,-8.5220086661812059E-004,118.66762543826628,216.96226639911634,259.64841994370795,325.04901076715981,92.502758751953124,62.396666666666668,8.5766666666666538,4.1828304121362248,8.8081488206651102,0.21495060903279167
20240208223000,427.71755420703715,7.5658340554056140,0.85651035440491963,0,-28.168526393217540,0,-6.6391153233232760,0,1.7392829927925644,0,139.01356088670494,3.8460350628908708,11.298082714917388,1.7247878323284340,1.4418559840820877,0.99991117099152893,0.86522857992212687,1896.7924689727445,1.0016910289764027E-002,111.52967809510410,203.91182212427347,244.03037127669714,305.49706714113722,92.545351949218755,66.176666666666662,7.8439999999999941,3.5796405569320178,8.2087267456054178,0.24914468236204695
20240208230000,427.32325390449944,7.8281916514226868,1.0964130666027090,0,-27.328983352572290,0,-17.682747983811520,1,3.0133491470185807,0,136.29770731741311,4.3701624540790096,12.959741447753334,1.8979794069412637,1.6112664815004267,1.1512852428521292,0.97783883594919330,2822.2292863047428,6.7322666135597566E-003,109.88094223851925,200.89740714110499,240.42288643417373,300.98092419802214,92.547875807291675,71.564999999999998,7.1976666666666915,2.8793664564180577,7.6100757208930645,0.17365480722064758